Starlink 36256

operational
NORAD ID: 67103 Int'l Des: 2025-299 Owner: SPXS Country: US Constellation: starlink
LEOCIRCULAR

Über Starlink 36256

Beschreibung wird geladen...

Live-Position

3D-Globus wird geladen...

Nächste Überflüge

Höhenverlauf

Altitude vs Time

uPlot chart will show altitude changes over time

Zweizeiliger Elementsatz

1 67103C 25299B 25349.43520833 .00344270 00000+0 54540-3 0 3494
2 67103 43.0011 301.4635 0007207 269.6390 336.7847 16.02399600 16
Epoch: 15. Dez. 2025 • Age: 64 hours

Aktueller Status

Höhe 268.0 km
Geschwindigkeit 7.75 km/s
Subsatellitenpunkt 30.69°N, 104.7°E
Startdatum 15. Dez. 2025
Alter 2 days
Typ internet

Technische Details

Klassifizierung Payload
Masse 575.00 kg
Trockenmasse 530.00 kg
Gesamtmasse 575.00 kg
Länge 0.30 m
Durchmesser 4.10 m
Spannweite 29.00 m
Form Box + pan
Hersteller SPXS
Bus-Typ Starlink V2MO
Phasenstatus In Orbit
Besitzer/Staat SPXS/US

Große Konstellationen

Loading constellations...